NETSAT-2 (46507 NORAD) Tracking and Keplerian Element Data

This shows tracking and keplerian element data for the satellite.

Feedback or suggestion? Click here.




ElementValue
Catalog46507
NameNETSAT-2
Epoch Orbit953
Epoch Day336.84512534
Epoch Year2020
RAAN269.5693
Inclination97.6663
Eccentricity0.0011315
Argument of Perigee48.9488
Mean Anonmoly311.2721
Mean Motion15.01769784
Decay Rate1.339E-05
L11 46507U 20068X 20336.84512534 .00001339 00000-0 10734-3 0 9998
L22 46507 97.6663 269.5693 0011315 48.9488 311.2721 15.01769784 9535

Live tracking and technical data element details for NETSAT-2 (NORAD 46507). NETSAT-2 can be tracked NOW for your location showing map with azimuth and elevation plus other details from your city location.

Track the satellite on the map from your city or location and see movement details for azimuth, elevation, latitude, longitude, range, height, and movement on the map or in text.







IsCatalogInMostPopularTable: catalog: 46507, numindb: 14
Update: records affected: 1



GetName: 46507 NETSAT-2

Hit Count: updated at: Thu, 03 Dec 2020 07:30:00 GMT